STARLINK-30141 (57620 NORAD) Tracking and Keplerian Element Data

This shows tracking and keplerian element data for the satellite.

Feedback or suggestion? Click here.




ElementValue
Catalog57620
NameSTARLINK-30141
Epoch Orbit2470
Epoch Day13.13252354
Epoch Year2024
RAAN35.8499
Inclination43.0038
Eccentricity9.09E-05
Argument of Perigee251.917
Mean Anonmoly108.1573
Mean Motion15.02527676
Decay Rate-2.009E-05
L11 57620U 23119U 24013.13252354 -.00002009 00000+0 -13373-3 0 9993
L22 57620 43.0038 35.8499 0000909 251.9170 108.1573 15.02527676 24700



Live tracking and technical data element details for STARLINK-30141 (NORAD 57620). STARLINK-30141 can be tracked NOW for your location showing map with azimuth and elevation plus other details from your city location.







IsCatalogInMostPopularTable: catalog: 57620, numindb: 24
Update: records affected: 1



GetName: 57620 STARLINK-30141

Hit Count: updated at: Thu, 22 Feb 2024 01:29:41 GMT